Tillbaka till svenska Fidonet
English   Information   Debug  
FILM   0/18
FNEWS_PUBLISH   4983
FN_SYSOP   42232
FN_SYSOP_OLD1   71952
FTP_FIDO   0/2
FTSC_PUBLIC   0/13976
FUNNY   0/4886
GENEALOGY.EUR   0/71
GET_INFO   105
GOLDED   0/408
HAM   3387/16714
HOLYSMOKE   0/6791
HOT_SITES   0/1
HTMLEDIT   0/71
HUB203   466
HUB_100   264
HUB_400   39
HUMOR   0/29
IC   0/2851
INTERNET   0/424
INTERUSER   0/3
IP_CONNECT   719
JAMNNTPD   0/233
JAMTLAND   0/47
KATTY_KORNER   0/41
LAN   0/16
LINUX-USER   0/19
LINUXHELP   0/1155
LINUX   0/22386
LINUX_BBS   0/957
mail   18.68
mail_fore_ok   249
MENSA   0/341
MODERATOR   0/102
MONTE   0/992
MOSCOW_OKLAHOMA   0/1245
MUFFIN   0/783
MUSIC   0/321
N203_STAT   938
N203_SYSCHAT   313
NET203   321
NET204   69
NET_DEV   0/10
NORD.ADMIN   0/101
NORD.CHAT   0/2572
NORD.FIDONET   189
NORD.HARDWARE   0/28
NORD.KULTUR   0/114
NORD.PROG   0/32
NORD.SOFTWARE   0/88
NORD.TEKNIK   0/58
NORD   0/453
OCCULT_CHAT   0/93
OS2BBS   0/787
OS2DOSBBS   0/580
OS2HW   0/42
OS2INET   0/37
OS2LAN   0/134
OS2PROG   0/36
OS2REXX   0/113
OS2USER-L   207
OS2   0/4831
OSDEBATE   0/18996
PASCAL   0/490
PERL   0/457
PHP   0/45
POINTS   0/405
POLITICS   0/29554
POL_INC   0/14731
PSION   103
R20_ADMIN   1133
R20_AMATORRADIO   0/2
R20_BEST_OF_FIDONET   16
R20_CHAT   0/897
R20_DEPP   0/3
R20_DEV   400
R20_ECHO2   1889
R20_ECHOPRES   0/35
R20_ESTAT   0/719
R20_FIDONETPROG...
...RAM.MYPOINT
  0/2
R20_FIDONETPROGRAM   0/22
R20_FIDONET   0/248
R20_FILEFIND   0/24
R20_FILEFOUND   0/22
R20_HIFI   0/3
R20_INFO2   3782
R20_INTERNET   0/12940
R20_INTRESSE   0/60
R20_INTR_KOM   0/99
R20_KANDIDAT.CHAT   42
R20_KANDIDAT   28
R20_KOM_DEV   112
R20_KONTROLL   0/13360
R20_KORSET   0/18
R20_LOKALTRAFIK   0/24
R20_MODERATOR   0/1852
R20_NC   76
R20_NET200   245
R20_NETWORK.OTH...
...ERNETS
  0/13
R20_OPERATIVSYS...
...TEM.LINUX
  0/44
R20_PROGRAMVAROR   0/1
R20_REC2NEC   534
R20_SFOSM   0/341
R20_SF   0/108
R20_SPRAK.ENGLISH   0/1
R20_SQUISH   107
R20_TEST   2
R20_WORST_OF_FIDONET   20
RAR   0/9
RA_MULTI   106
RA_UTIL   0/162
REGCON.EUR   0/2069
REGCON   0/13
SCIENCE   0/1206
SF   0/239
SHAREWARE_SUPPORT   0/5146
SHAREWRE   0/14
SIMPSONS   0/169
STATS_OLD1   1567/2539.065
STATS_OLD2   0/2530
STATS_OLD3   0/2395.095
STATS_OLD4   0/1692.25
SURVIVOR   0/495
SYSOPS_CORNER   0/3
SYSOP   0/84
TAGLINES   0/112
TEAMOS2   0/4530
TECH   0/2617
TEST.444   0/105
TRAPDOOR   0/19
TREK   0/755
TUB   0/290
UFO   0/40
UNIX   0/1316
USA_EURLINK   0/102
USR_MODEMS   0/1
VATICAN   0/2740
VIETNAM_VETS   0/14
VIRUS   0/378
VIRUS_INFO   0/201
VISUAL_BASIC   0/473
WHITEHOUSE   0/5187
WIN2000   0/101
WIN32   0/30
WIN95   0/4291
WIN95_OLD1   0/70272
WINDOWS   0/1517
WWB_SYSOP   0/419
WWB_TECH   0/810
ZCC-PUBLIC   0/1
ZEC   4

 
4DOS   0/134
ABORTION   0/7
ALASKA_CHAT   0/506
ALLFIX_FILE   0/1313
ALLFIX_FILE_OLD1   0/7997
ALT_DOS   0/152
AMATEUR_RADIO   0/1039
AMIGASALE   0/14
AMIGA   0/331
AMIGA_INT   0/1
AMIGA_PROG   0/20
AMIGA_SYSOP   0/26
ANIME   0/15
ARGUS   0/924
ASCII_ART   0/340
ASIAN_LINK   0/651
ASTRONOMY   0/417
AUDIO   0/92
AUTOMOBILE_RACING   0/105
BABYLON5   0/17862
BAG   135
BATPOWER   0/361
BBBS.ENGLISH   0/382
BBSLAW   0/109
BBS_ADS   0/5290
BBS_INTERNET   0/507
BIBLE   0/3563
BINKD   0/1119
BINKLEY   0/215
BLUEWAVE   0/2173
CABLE_MODEMS   0/25
CBM   0/46
CDRECORD   0/66
CDROM   0/20
CLASSIC_COMPUTER   0/378
COMICS   0/15
CONSPRCY   0/899
COOKING   42003
COOKING_OLD1   0/24719
COOKING_OLD2   25062/40862
COOKING_OLD3   0/37489
COOKING_OLD4   0/35496
COOKING_OLD5   9370
C_ECHO   0/189
C_PLUSPLUS   0/31
DIRTY_DOZEN   0/201
DOORGAMES   0/2333
DOS_INTERNET   0/196
duplikat   6102
ECHOLIST   0/18295
EC_SUPPORT   0/318
ELECTRONICS   0/359
ELEKTRONIK.GER   1534
ENET.LINGUISTIC   0/13
ENET.POLITICS   0/4
ENET.SOFT   0/11701
ENET.SYSOP   34334
ENET.TALKS   0/32
ENGLISH_TUTOR   0/2000
EVOLUTION   0/1335
FDECHO   0/217
FDN_ANNOUNCE   0/7068
FIDONEWS   25122
FIDONEWS_OLD1   0/49742
FIDONEWS_OLD2   0/35949
FIDONEWS_OLD3   0/30874
FIDONEWS_OLD4   0/37224
FIDO_SYSOP   12973
FIDO_UTIL   0/180
FILEFIND   0/209
FILEGATE   0/212
Möte HAM, 16714 texter
 lista första sista föregående nästa
Text 4229, 908 rader
Skriven 2010-12-30 22:01:44 av Amsat List (1:323/120.0)
Ärende: [keps]  orb10364.amsa
=============================
[keps]  orb10364.amsa

Return-Path: <keps-bounces@amsat.org>
X-Rcpt: craig.healy@chowda.com
X-UIDL: 1293763950.26052

SB KEPS @ AMSAT  $ORB10364.O
Orbital Elements  10364.OSCAR

HR AMSAT ORBITAL ELEMENTS FOR OSCAR SATELLITES
FROM WA5QGD FORT WORTH,TX December 30, 2010
Send Subscribe/unsubscribe to KEPS at http://www.amsat.org/mailman/listinfo/kep
BID: ORB10364.O
TO ALL RADIO AMATEURS BT

Satellite: AO-07
Catalog number: 07530
Epoch time:      10363.56819190
Element set:    0966
Inclination:      101.3952 deg
RA of node:       011.8004 deg
Eccentricity:    0.0011819
Arg of perigee:   251.7267 deg
Mean anomaly:     108.2518 deg
Mean motion:   12.53580706 rev/day
Decay rate:       -2.7e-07 rev/day^2
Epoch rev:           65293
Checksum:              288

Satellite: FO-29
Catalog number: 24278
Epoch time:      10363.92836564
Element set:    0480
Inclination:      098.5206 deg
RA of node:       166.0798 deg
Eccentricity:    0.0350700
Arg of perigee:   336.2398 deg
Mean anomaly:     022.2885 deg
Mean motion:   13.52955477 rev/day
Decay rate:       -2.0e-07 rev/day^2
Epoch rev:           70957
Checksum:              335

Satellite: SO-33
Catalog number: 25509
Epoch time:      10363.60988318
Element set:    0872
Inclination:      031.4324 deg
RA of node:       123.3800 deg
Eccentricity:    0.0353850
Arg of perigee:   198.7235 deg
Mean anomaly:     160.0074 deg
Mean motion:   14.28352860 rev/day
Decay rate:        9.6e-07 rev/day^2
Epoch rev:           63601
Checksum:              292

Satellite: RS-22
Catalog number: 27939
Epoch time:      10364.62611429
Element set:     856
Inclination:      097.8644 deg
RA of node:       221.4683 deg
Eccentricity:    0.0013881
Arg of perigee:   154.2896 deg
Mean anomaly:     205.8998 deg
Mean motion:   14.63494177 rev/day
Decay rate:        8.5e-07 rev/day^2
Epoch rev:           38768
Checksum:              361

Satellite: VO-52
Catalog number: 28650
Epoch time:      10363.82430164
Element set:     681
Inclination:      097.6668 deg
RA of node:       049.3430 deg
Eccentricity:    0.0027022
Arg of perigee:   359.1722 deg
Mean anomaly:     000.9469 deg
Mean motion:   14.81879865 rev/day
Decay rate:        7.2e-07 rev/day^2
Epoch rev:           30566
Checksum:              316

Satellite: SO-67
Catalog number: 35870
Epoch time:      10364.55878003
Element set:     426
Inclination:      097.3065 deg
RA of node:       048.2222 deg
Eccentricity:    0.0004244
Arg of perigee:   113.5943 deg
Mean anomaly:     026.3649 deg
Mean motion:   15.21261848 rev/day
Decay rate:       5.85e-06 rev/day^2
Epoch rev:            7130
Checksum:              295

Satellite: HO-68
Catalog number: 36122
Epoch time:      10364.80504183
Element set:     981
Inclination:      100.4430 deg
RA of node:       063.0034 deg
Eccentricity:    0.0007186
Arg of perigee:   247.5100 deg
Mean anomaly:     112.5255 deg
Mean motion:   13.16283564 rev/day
Decay rate:       -4.5e-07 rev/day^2
Epoch rev:            5008
Checksum:              252

/EX
SB KEPS @ AMSAT  $ORB10364.D
Orbital Elements  10364.MICROS

HR AMSAT ORBITAL ELEMENTS FOR THE MICROSATS
FROM WA5QGD FORT WORTH,TX December 30, 2010
Send Subscribe/unsubscribe to KEPS at http://www.amsat.org/mailman/listinfo/kep
BID: ORB10364.D
TO ALL RADIO AMATEURS BT

Satellite: UO-11
Catalog number: 14781
Epoch time:      10364.85227830
Element set:     431
Inclination:      098.0306 deg
RA of node:       056.8900 deg
Eccentricity:    0.0008538
Arg of perigee:   329.8910 deg
Mean anomaly:     030.1834 deg
Mean motion:   14.79874207 rev/day
Decay rate:        9.9e-07 rev/day^2
Epoch rev:           44089
Checksum:              312

Satellite: AO-16
Catalog number: 20439
Epoch time:      10364.82754450
Element set:      80
Inclination:      098.3618 deg
RA of node:       315.2806 deg
Eccentricity:    0.0010288
Arg of perigee:   306.7504 deg
Mean anomaly:     053.2746 deg
Mean motion:   14.31889610 rev/day
Decay rate:        2.7e-07 rev/day^2
Epoch rev:            9352
Checksum:              293

Satellite: LO-19
Catalog number: 20442
Epoch time:      10363.81572679
Element set:    0990
Inclination:      098.3237 deg
RA of node:       319.3216 deg
Eccentricity:    0.0010967
Arg of perigee:   302.0997 deg
Mean anomaly:     057.9126 deg
Mean motion:   14.32118289 rev/day
Decay rate:       1.36e-06 rev/day^2
Epoch rev:           09355
Checksum:              319

Satellite: AO-27
Catalog number: 22825
Epoch time:      10364.44405325
Element set:     712
Inclination:      098.5113 deg
RA of node:       307.5591 deg
Eccentricity:    0.0009250
Arg of perigee:   054.6851 deg
Mean anomaly:     305.5225 deg
Mean motion:   14.29321982 rev/day
Decay rate:       1.75e-06 rev/day^2
Epoch rev:           90008
Checksum:              284

Satellite: IO-26
Catalog number: 22826
Epoch time:      10364.82416340
Element set:     449
Inclination:      098.5053 deg
RA of node:       308.4617 deg
Eccentricity:    0.0009711
Arg of perigee:   048.7040 deg
Mean anomaly:     311.4994 deg
Mean motion:   14.29580391 rev/day
Decay rate:        3.1e-07 rev/day^2
Epoch rev:           90025
Checksum:              291

Satellite: GO-32
Catalog number: 25397
Epoch time:      10364.53331045
Element set:     369
Inclination:      098.3186 deg
RA of node:       001.2075 deg
Eccentricity:    0.0002083
Arg of perigee:   070.5535 deg
Mean anomaly:     289.5889 deg
Mean motion:   14.23193646 rev/day
Decay rate:       1.41e-06 rev/day^2
Epoch rev:           64797
Checksum:              312

